Мон-де-Марсан

Франция     43°53′35″N   0°30′01″E
темп.,
°C
ветер,
м/с
пор.,
м/с
влажн.,
%
обл.,
%
осадки,
мм/ч
давл.,
гПа
погр.,
м
14 апреля, ср
ср1423:00+9св2355100 0.0 102461
02:00+7св3857100 0.0 1024250
05:00+5св276411 0.0 1023181
08:00+4св26697 0.0 1023174
11:00+11св24370 0.0 1023665
14:00+16ссв33230 0.0 10221393
17:00+17св34210 0.0 10201769
20:00+14св36330 0.0 1021292
15 апреля, чт
чт1523:00+9ссв312440 0.0 1023460
02:00+7св312520 0.0 1023445
05:00+5св39630 0.0 1023299
08:00+3св27700 0.0 1024248
11:00+10св34380 0.0 1023872
14:00+15ссв34240 0.0 10221682
17:00+16ссв34230 0.0 10192163
20:00+13с37335 0.0 1020443
16 апреля, пт
пт1623:00+9с411510 0.0 1021425
02:00+6ссв39560 0.0 1021370
05:00+4с27675 0.0 1021225
08:00+3ссз27745 0.0 1022292
11:00+10с36445 0.0 1022974
14:00+14с4627100 0.0 10213203
17:00+15с5522100 0.0 10192978
20:00+11с594282 0.0 10211178
17 апреля, сб
сб1723:00+8с3105367 0.0 1023580
02:00+5с39674 0.0 1023325
05:00+3с23800 0.0 102374
08:00+2ссз15830 0.0 1024163
11:00+10ссз24450 0.0 1024888
14:00+14ссз35325 0.0 10221926
17:00+16с4633100 0.0 10212566
20:00+11с4753100 0.0 10231016
18 апреля, вс
вс1823:00+9ссз266640 0.0 1025248
02:00+7зсз117967 0.0 102510
05:00+8с006577 0.0 102421
08:00+6с11815 0.0 102521
11:00+14ссв12465 0.0 10241008
14:00+18с123112 0.0 10222024
17:00+19ссв22285 0.0 10212298
20:00+16св25424 0.0 1021264